status,avgMeasuredTime,avgSpeed,extID,medianMeasuredTime,TIMESTAMP,vehicleCount,_id,REPORT_ID
OK,84,24,686,84,2014-08-01T07:50:00,0,20746238,192787
OK,84,24,686,84,2014-08-01T07:55:00,0,20746410,192787
OK,71,28,686,71,2014-08-01T08:00:00,1,20746741,192787
OK,44,46,686,44,2014-08-01T08:05:00,2,20747190,192787
OK,44,46,686,44,2014-08-01T08:10:00,0,20747563,192787
OK,44,46,686,44,2014-08-01T08:15:00,0,20748012,192787
OK,63,32,686,63,2014-08-01T08:20:00,1,20748461,192787
OK,56,36,686,56,2014-08-01T08:25:00,2,20748910,192787
OK,49,41,686,49,2014-08-01T08:30:00,0,20749359,192787
OK,46,44,686,46,2014-08-01T08:35:00,2,20749808,192787
OK,46,44,686,46,2014-08-01T08:40:00,2,20750257,192787
OK,46,44,686,46,2014-08-01T08:45:00,0,20750706,192787
OK,49,41,686,49,2014-08-01T08:50:00,1,20751155,192787
OK,53,38,686,53,2014-08-01T08:55:00,3,20751604,192787
OK,53,38,686,53,2014-08-01T09:00:00,3,20752053,192787
OK,64,31,686,64,2014-08-01T09:05:00,2,20752502,192787
OK,64,31,686,64,2014-08-01T09:10:00,2,20752951,192787
OK,85,23,686,85,2014-08-01T09:15:00,0,20753400,192787
OK,92,22,686,92,2014-08-01T09:20:00,1,20753849,192787
OK,92,22,686,92,2014-08-01T09:25:00,1,20754298,192787
OK,92,22,686,92,2014-08-01T09:30:00,0,20754747,192787
OK,92,22,686,92,2014-08-01T09:35:00,0,20755196,192787
OK,41,49,686,41,2014-08-01T09:40:00,1,20755645,192787
OK,41,49,686,41,2014-08-01T09:45:00,1,20756094,192787
OK,41,49,686,41,2014-08-01T09:50:00,0,20756543,192787
OK,41,49,686,41,2014-08-01T09:55:00,0,20756992,192787
OK,41,49,686,41,2014-08-01T10:00:00,0,20757441,192787
OK,81,25,686,81,2014-08-01T10:05:00,1,20757890,192787
OK,81,25,686,81,2014-08-01T10:10:00,1,20758339,192787
OK,81,25,686,81,2014-08-01T10:15:00,0,20758788,192787
OK,81,25,686,81,2014-08-01T10:20:00,0,20759237,192787
OK,73,27,686,73,2014-08-01T10:25:00,2,20759686,192787
OK,55,37,686,55,2014-08-01T10:30:00,4,20760135,192787
OK,44,46,686,44,2014-08-01T10:35:00,3,20760584,192787
OK,61,33,686,61,2014-08-01T10:40:00,1,20761033,192787
OK,61,33,686,61,2014-08-01T10:45:00,0,20761482,192787
OK,61,33,686,61,2014-08-01T10:50:00,0,20761931,192787
OK,40,50,686,40,2014-08-01T10:55:00,1,20762380,192787
OK,40,50,686,40,2014-08-01T11:00:00,1,20762829,192787
OK,45,45,686,45,2014-08-01T11:05:00,1,20763278,192787
OK,47,43,686,47,2014-08-01T11:10:00,2,20763727,192787
OK,58,35,686,58,2014-08-01T11:15:00,4,20764176,192787
OK,65,31,686,65,2014-08-01T11:20:00,2,20764624,192787
OK,40,50,686,40,2014-08-01T11:25:00,2,20765073,192787
OK,45,45,686,45,2014-08-01T11:30:00,3,20765522,192787
OK,42,48,686,42,2014-08-01T11:35:00,1,20765971,192787
OK,56,36,686,56,2014-08-01T11:40:00,1,20766420,192787
OK,56,36,686,56,2014-08-01T11:45:00,1,20766869,192787
OK,56,36,686,56,2014-08-01T11:50:00,1,20767318,192787
OK,44,46,686,44,2014-08-01T11:55:00,1,20767767,192787
OK,57,35,686,57,2014-08-01T12:00:00,2,20768216,192787
OK,71,28,686,71,2014-08-01T12:05:00,1,20768665,192787
OK,36,56,686,36,2014-08-01T12:10:00,1,20769114,192787
OK,40,50,686,40,2014-08-01T12:15:00,2,20769563,192787
OK,45,45,686,45,2014-08-01T12:20:00,0,20770012,192787
OK,76,26,686,76,2014-08-01T12:25:00,2,20770461,192787
OK,91,22,686,91,2014-08-01T12:30:00,2,20770910,192787
OK,70,29,686,70,2014-08-01T12:35:00,3,20771359,192787
OK,55,37,686,55,2014-08-01T12:40:00,2,20771808,192787
OK,41,49,686,41,2014-08-01T12:45:00,0,20772257,192787
OK,73,27,686,73,2014-08-01T12:50:00,1,20772706,192787
OK,73,27,686,73,2014-08-01T12:55:00,1,20773155,192787
OK,65,31,686,65,2014-08-01T13:00:00,1,20773604,192787
OK,55,37,686,55,2014-08-01T13:05:00,4,20774053,192787
OK,43,47,686,43,2014-08-01T13:10:00,3,20774502,192787
OK,50,40,686,50,2014-08-01T13:15:00,1,20774951,192787
OK,53,38,686,53,2014-08-01T13:20:00,2,20775400,192787
OK,57,35,686,57,2014-08-01T13:25:00,1,20775849,192787
OK,57,35,686,57,2014-08-01T13:30:00,0,20776298,192787
OK,57,35,686,57,2014-08-01T13:35:00,0,20776747,192787
OK,57,35,686,57,2014-08-01T13:40:00,0,20777196,192787
OK,67,30,686,67,2014-08-01T13:45:00,1,20777645,192787
OK,54,37,686,54,2014-08-01T13:50:00,2,20778094,192787
OK,54,37,686,54,2014-08-01T13:55:00,2,20778543,192787
OK,78,26,686,78,2014-08-01T14:00:00,0,20778992,192787
OK,78,26,686,78,2014-08-01T14:05:00,0,20779441,192787
OK,78,26,686,78,2014-08-01T14:10:00,0,20779890,192787
OK,78,26,686,78,2014-08-01T14:15:00,0,20780339,192787
OK,78,26,686,78,2014-08-01T14:20:00,0,20780788,192787
OK,78,26,686,78,2014-08-01T14:25:00,0,20781237,192787
OK,46,44,686,46,2014-08-01T14:30:00,1,20781686,192787
OK,64,31,686,64,2014-08-01T14:35:00,3,20782135,192787
OK,64,31,686,64,2014-08-01T14:40:00,1,20782584,192787
OK,64,31,686,64,2014-08-01T14:45:00,0,20783033,192787
OK,61,33,686,61,2014-08-01T14:50:00,2,20783482,192787
OK,43,47,686,43,2014-08-01T14:55:00,1,20783931,192787
OK,91,22,686,91,2014-08-01T15:00:00,1,20784380,192787
OK,91,22,686,91,2014-08-01T15:05:00,0,20784829,192787
OK,91,22,686,91,2014-08-01T15:10:00,0,20785278,192787
OK,91,22,686,91,2014-08-01T15:15:00,0,20785727,192787
OK,91,22,686,91,2014-08-01T15:20:00,0,20786176,192787
OK,91,22,686,91,2014-08-01T15:25:00,0,20786625,192787
OK,91,22,686,91,2014-08-01T15:30:00,0,20787074,192787
OK,91,22,686,91,2014-08-01T15:35:00,0,20787523,192787
OK,39,52,686,39,2014-08-01T15:40:00,1,20787972,192787
OK,71,28,686,71,2014-08-01T15:45:00,3,20788421,192787
OK,71,28,686,71,2014-08-01T15:50:00,3,20788870,192787
OK,71,28,686,71,2014-08-01T15:55:00,0,20789319,192787
OK,44,46,686,44,2014-08-01T16:00:00,2,20789768,192787
OK,44,46,686,44,2014-08-01T16:05:00,2,20790217,192787
OK,45,45,686,45,2014-08-01T16:10:00,0,20790666,192787
OK,45,45,686,45,2014-08-01T16:15:00,0,20791115,192787
OK,45,45,686,45,2014-08-01T16:20:00,0,20791564,192787
OK,45,45,686,45,2014-08-01T16:25:00,0,20792013,192787
OK,45,45,686,45,2014-08-01T16:30:00,0,20792462,192787
OK,56,36,686,56,2014-08-01T16:35:00,1,20792911,192787
OK,47,43,686,47,2014-08-01T16:40:00,2,20793360,192787
OK,38,53,686,38,2014-08-01T16:45:00,0,20793809,192787
OK,38,53,686,38,2014-08-01T16:50:00,0,20794258,192787
OK,38,53,686,38,2014-08-01T16:55:00,0,20794707,192787
OK,38,53,686,38,2014-08-01T17:00:00,0,20795156,192787
OK,38,53,686,38,2014-08-01T17:05:00,0,20795605,192787
OK,38,53,686,38,2014-08-01T17:10:00,0,20796054,192787
OK,38,53,686,38,2014-08-01T17:15:00,0,20796503,192787
OK,38,53,686,38,2014-08-01T17:20:00,0,20796952,192787
OK,38,53,686,38,2014-08-01T17:25:00,0,20797401,192787
OK,38,53,686,38,2014-08-01T17:30:00,0,20797850,192787
OK,77,26,686,77,2014-08-01T17:35:00,1,20798299,192787
OK,77,26,686,77,2014-08-01T17:40:00,0,20798748,192787
OK,77,26,686,77,2014-08-01T17:45:00,0,20799197,192787
OK,77,26,686,77,2014-08-01T17:50:00,0,20799646,192787
OK,77,26,686,77,2014-08-01T17:55:00,0,20800095,192787
OK,77,26,686,77,2014-08-01T18:00:00,0,20800544,192787
OK,77,26,686,77,2014-08-01T18:05:00,0,20800993,192787
OK,77,26,686,77,2014-08-01T18:10:00,0,20801442,192787
OK,52,39,686,52,2014-08-01T18:15:00,2,20801891,192787
OK,52,39,686,52,2014-08-01T18:20:00,2,20802340,192787
OK,52,39,686,52,2014-08-01T18:25:00,0,20802789,192787
OK,52,39,686,52,2014-08-01T18:30:00,0,20803238,192787
OK,52,39,686,52,2014-08-01T18:35:00,0,20803687,192787
OK,52,39,686,52,2014-08-01T18:40:00,0,20804136,192787
OK,52,39,686,52,2014-08-01T18:45:00,0,20804585,192787
OK,52,39,686,52,2014-08-01T18:50:00,0,20805034,192787
OK,52,39,686,52,2014-08-01T18:55:00,0,20805483,192787
OK,52,39,686,52,2014-08-01T19:00:00,0,20805932,192787
OK,35,58,686,35,2014-08-01T19:05:00,0,20806381,192787
OK,35,58,686,35,2014-08-01T19:10:00,0,20806830,192787
OK,35,58,686,35,2014-08-01T19:15:00,0,20807279,192787
OK,35,58,686,35,2014-08-01T19:20:00,0,20807728,192787
OK,35,58,686,35,2014-08-01T19:25:00,0,20808177,192787
OK,35,58,686,35,2014-08-01T19:30:00,0,20808626,192787
OK,35,58,686,35,2014-08-01T19:35:00,0,20809075,192787
OK,35,58,686,35,2014-08-01T19:40:00,0,20809524,192787
OK,35,58,686,35,2014-08-01T19:45:00,0,20809973,192787
OK,35,58,686,35,2014-08-01T19:50:00,0,20810422,192787
OK,35,58,686,35,2014-08-01T19:55:00,0,20810871,192787
OK,77,26,686,77,2014-08-01T20:00:00,1,20811317,192787
OK,77,26,686,77,2014-08-01T20:05:00,1,20811490,192787
OK,77,26,686,77,2014-08-01T20:10:00,0,20811693,192787
OK,77,26,686,77,2014-08-01T20:15:00,0,20811899,192787
OK,77,26,686,77,2014-08-01T20:20:00,0,20812108,192787
OK,43,47,686,43,2014-08-01T20:25:00,1,20812327,192787
OK,43,47,686,43,2014-08-01T20:30:00,1,20812541,192787
OK,66,30,686,66,2014-08-01T20:35:00,2,20812749,192787
OK,66,30,686,66,2014-08-01T20:40:00,2,20812952,192787
OK,66,30,686,66,2014-08-01T20:45:00,0,20813159,192787
OK,66,30,686,66,2014-08-01T20:50:00,0,20813370,192787
OK,66,30,686,66,2014-08-01T20:55:00,0,20813600,192787
OK,78,26,686,78,2014-08-01T21:00:00,1,20813838,192787
OK,78,26,686,78,2014-08-01T21:05:00,0,20814015,192787
OK,78,26,686,78,2014-08-01T21:10:00,0,20814254,192787
OK,78,26,686,78,2014-08-01T21:15:00,0,20814450,192787
OK,78,26,686,78,2014-08-01T21:20:00,0,20814657,192787
OK,78,26,686,78,2014-08-01T21:25:00,0,20814886,192787
OK,78,26,686,78,2014-08-01T21:30:00,0,20815162,192787
OK,78,26,686,78,2014-08-01T21:35:00,0,20815395,192787
OK,78,26,686,78,2014-08-01T21:40:00,0,20815619,192787
OK,78,26,686,78,2014-08-01T21:45:00,0,20815856,192787
OK,36,56,686,36,2014-08-01T21:50:00,1,20816097,192787
OK,36,56,686,36,2014-08-01T21:55:00,0,20816332,192787
OK,36,56,686,36,2014-08-01T22:00:00,0,20816600,192787
OK,36,56,686,36,2014-08-01T22:05:00,0,20817049,192787
OK,36,56,686,36,2014-08-01T22:10:00,0,20817371,192787
OK,36,56,686,36,2014-08-01T22:15:00,0,20817800,192787
OK,36,56,686,36,2014-08-01T22:20:00,0,20818090,192787
OK,36,56,686,36,2014-08-01T22:25:00,0,20818406,192787
OK,36,56,686,36,2014-08-01T22:30:00,0,20818740,192787
OK,36,56,686,36,2014-08-01T22:35:00,0,20819042,192787
OK,36,56,686,36,2014-08-01T22:40:00,0,20819224,192787
OK,36,56,686,36,2014-08-01T22:45:00,0,20819512,192787
OK,36,56,686,36,2014-08-01T22:50:00,0,20819747,192787
OK,167,12,686,167,2014-08-01T22:55:00,1,20820000,192787
OK,167,12,686,167,2014-08-01T23:00:00,0,20820176,192787
OK,167,12,686,167,2014-08-01T23:05:00,0,20820429,192787
OK,167,12,686,167,2014-08-01T23:10:00,0,20820659,192787
OK,167,12,686,167,2014-08-01T23:15:00,0,20820847,192787
OK,167,12,686,167,2014-08-01T23:20:00,0,20821097,192787
OK,167,12,686,167,2014-08-01T23:25:00,0,20821275,192787
OK,167,12,686,167,2014-08-01T23:30:00,0,20821501,192787
OK,167,12,686,167,2014-08-01T23:35:00,0,20821746,192787
OK,167,12,686,167,2014-08-01T23:40:00,0,20821925,192787
OK,167,12,686,167,2014-08-01T23:45:00,0,20822148,192787
OK,167,12,686,167,2014-08-01T23:50:00,0,20822415,192787
OK,167,12,686,167,2014-08-01T23:55:00,0,20822741,192787
OK,167,12,686,167,2014-08-02T00:00:00,0,20823039,192787
OK,167,12,686,167,2014-08-02T00:05:00,0,20823488,192787
OK,167,12,686,167,2014-08-02T00:10:00,0,20823937,192787
OK,167,12,686,167,2014-08-02T00:15:00,0,20824386,192787
OK,167,12,686,167,2014-08-02T00:20:00,0,20824835,192787
OK,167,12,686,167,2014-08-02T00:25:00,0,20825284,192787
OK,167,12,686,167,2014-08-02T00:30:00,0,20825733,192787
OK,167,12,686,167,2014-08-02T00:35:00,0,20826182,192787
OK,167,12,686,167,2014-08-02T00:40:00,0,20826631,192787
OK,167,12,686,167,2014-08-02T00:45:00,0,20827080,192787
OK,167,12,686,167,2014-08-02T00:50:00,0,20827529,192787
OK,167,12,686,167,2014-08-02T00:55:00,0,20827978,192787
OK,167,12,686,167,2014-08-02T01:00:00,0,20828427,192787
OK,167,12,686,167,2014-08-02T01:05:00,0,20828876,192787
OK,167,12,686,167,2014-08-02T01:10:00,0,20829325,192787
OK,167,12,686,167,2014-08-02T01:15:00,0,20829774,192787
OK,167,12,686,167,2014-08-02T01:20:00,0,20830223,192787
OK,167,12,686,167,2014-08-02T01:25:00,0,20830672,192787
OK,167,12,686,167,2014-08-02T01:30:00,0,20831121,192787
OK,167,12,686,167,2014-08-02T01:35:00,0,20831570,192787
OK,167,12,686,167,2014-08-02T01:40:00,0,20832019,192787
OK,167,12,686,167,2014-08-02T01:45:00,0,20832468,192787
OK,167,12,686,167,2014-08-02T01:50:00,0,20832917,192787
OK,167,12,686,167,2014-08-02T01:55:00,0,20833366,192787
OK,167,12,686,167,2014-08-02T02:00:00,0,20833815,192787
OK,167,12,686,167,2014-08-02T02:05:00,0,20834264,192787
OK,167,12,686,167,2014-08-02T02:10:00,0,20834713,192787
OK,167,12,686,167,2014-08-02T02:15:00,0,20835162,192787
OK,167,12,686,167,2014-08-02T02:20:00,0,20835611,192787
OK,167,12,686,167,2014-08-02T02:25:00,0,20836060,192787
OK,167,12,686,167,2014-08-02T02:30:00,0,20836509,192787
OK,167,12,686,167,2014-08-02T02:35:00,0,20836958,192787
OK,167,12,686,167,2014-08-02T02:40:00,0,20837407,192787
OK,167,12,686,167,2014-08-02T02:45:00,0,20837856,192787
OK,167,12,686,167,2014-08-02T02:50:00,0,20838305,192787
OK,167,12,686,167,2014-08-02T02:55:00,0,20838754,192787
OK,167,12,686,167,2014-08-02T03:00:00,0,20839203,192787
OK,167,12,686,167,2014-08-02T03:05:00,0,20839652,192787
OK,167,12,686,167,2014-08-02T03:10:00,0,20840101,192787
OK,167,12,686,167,2014-08-02T03:15:00,0,20840550,192787
OK,167,12,686,167,2014-08-02T03:20:00,0,20840999,192787
OK,167,12,686,167,2014-08-02T03:25:00,0,20841448,192787
OK,167,12,686,167,2014-08-02T03:30:00,0,20841897,192787
OK,167,12,686,167,2014-08-02T03:35:00,0,20842346,192787
OK,167,12,686,167,2014-08-02T03:40:00,0,20842795,192787
OK,167,12,686,167,2014-08-02T03:45:00,0,20843244,192787
OK,167,12,686,167,2014-08-02T03:50:00,0,20843693,192787
OK,167,12,686,167,2014-08-02T03:55:00,0,20844142,192787
OK,167,12,686,167,2014-08-02T04:00:00,0,20844591,192787
OK,167,12,686,167,2014-08-02T04:05:00,0,20844722,192787
OK,167,12,686,167,2014-08-02T04:10:00,0,20845052,192787
OK,167,12,686,167,2014-08-02T04:15:00,0,20845232,192787
OK,167,12,686,167,2014-08-02T04:20:00,0,20845588,192787
OK,167,12,686,167,2014-08-02T04:25:00,0,20845956,192787
OK,167,12,686,167,2014-08-02T04:30:00,0,20846144,192787
OK,167,12,686,167,2014-08-02T04:35:00,0,20846511,192787
OK,167,12,686,167,2014-08-02T04:40:00,0,20846894,192787
OK,167,12,686,167,2014-08-02T04:45:00,0,20847153,192787
OK,167,12,686,167,2014-08-02T04:50:00,0,20847519,192787
OK,97,21,686,97,2014-08-02T04:55:00,0,20847876,192787
OK,63,32,686,63,2014-08-02T05:00:00,1,20848236,192787
OK,63,32,686,63,2014-08-02T05:05:00,0,20848400,192787
OK,63,32,686,63,2014-08-02T05:10:00,0,20848754,192787
OK,63,32,686,63,2014-08-02T05:15:00,0,20848946,192787
OK,63,32,686,63,2014-08-02T05:20:00,0,20849290,192787
OK,63,32,686,63,2014-08-02T05:30:00,0,20849815,192787
OK,63,32,686,63,2014-08-02T05:35:00,0,20850087,192787
OK,77,26,686,77,2014-08-02T05:40:00,1,20850380,192787
OK,77,26,686,77,2014-08-02T05:45:00,1,20850681,192787
OK,49,41,686,49,2014-08-02T05:50:00,1,20851039,192787
OK,49,41,686,49,2014-08-02T05:55:00,0,20851293,192787
OK,49,41,686,49,2014-08-02T06:00:00,0,20851596,192787
OK,49,41,686,49,2014-08-02T06:05:00,0,20852045,192787
OK,49,41,686,49,2014-08-02T06:10:00,0,20852494,192787
OK,49,41,686,49,2014-08-02T06:15:00,0,20852943,192787
OK,49,41,686,49,2014-08-02T06:20:00,0,20853392,192787
OK,59,34,686,59,2014-08-02T06:25:00,1,20853841,192787
OK,59,34,686,59,2014-08-02T06:30:00,0,20854290,192787
OK,59,34,686,59,2014-08-02T06:35:00,0,20854739,192787
OK,59,34,686,59,2014-08-02T06:40:00,0,20855188,192787
OK,59,34,686,59,2014-08-02T06:45:00,0,20855637,192787
OK,49,41,686,49,2014-08-02T06:50:00,1,20856086,192787
OK,49,41,686,49,2014-08-02T06:55:00,0,20856535,192787
OK,49,41,686,49,2014-08-02T07:00:00,0,20856984,192787
OK,49,41,686,49,2014-08-02T07:05:00,0,20857433,192787
OK,49,41,686,49,2014-08-02T07:10:00,0,20857882,192787
OK,63,32,686,63,2014-08-02T07:15:00,3,20858331,192787
OK,62,32,686,62,2014-08-02T07:20:00,5,20858780,192787
OK,70,29,686,70,2014-08-02T07:25:00,2,20859229,192787
OK,55,37,686,55,2014-08-02T07:30:00,0,20859678,192787
OK,55,37,686,55,2014-08-02T07:35:00,0,20860127,192787
OK,55,37,686,55,2014-08-02T07:40:00,0,20860576,192787
OK,47,43,686,47,2014-08-02T07:45:00,1,20861025,192787
OK,52,39,686,52,2014-08-02T07:50:00,2,20861474,192787
OK,53,38,686,53,2014-08-02T07:55:00,1,20861923,192787
OK,69,29,686,69,2014-08-02T08:00:00,1,20862372,192787
OK,36,56,686,36,2014-08-02T08:05:00,1,20862821,192787
OK,36,56,686,36,2014-08-02T08:10:00,1,20863270,192787
OK,36,56,686,36,2014-08-02T08:15:00,0,20863719,192787
OK,57,35,686,57,2014-08-02T08:20:00,1,20864168,192787
OK,74,27,686,74,2014-08-02T08:25:00,4,20864617,192787
OK,87,23,686,87,2014-08-02T08:30:00,3,20865066,192787
OK,87,23,686,87,2014-08-02T08:35:00,0,20865515,192787
OK,51,39,686,51,2014-08-02T08:40:00,2,20865964,192787
OK,51,39,686,51,2014-08-02T08:45:00,2,20866413,192787
OK,76,26,686,76,2014-08-02T08:50:00,1,20866862,192787
OK,76,26,686,76,2014-08-02T08:55:00,1,20867311,192787
OK,76,26,686,76,2014-08-02T09:00:00,0,20867760,192787
OK,56,36,686,56,2014-08-02T09:05:00,1,20868209,192787
OK,55,37,686,55,2014-08-02T09:10:00,2,20868658,192787
OK,49,41,686,49,2014-08-02T09:15:00,2,20869107,192787
OK,63,32,686,63,2014-08-02T09:20:00,1,20869556,192787
OK,63,32,686,63,2014-08-02T09:25:00,3,20870005,192787
OK,90,22,686,90,2014-08-02T09:30:00,1,20870454,192787
OK,53,38,686,53,2014-08-02T09:35:00,1,20870903,192787
OK,53,38,686,53,2014-08-02T09:40:00,0,20871352,192787
OK,53,38,686,53,2014-08-02T09:45:00,0,20871801,192787
OK,70,29,686,70,2014-08-02T09:50:00,1,20872250,192787
OK,70,29,686,70,2014-08-02T09:55:00,3,20872699,192787
OK,47,43,686,47,2014-08-02T10:00:00,2,20873148,192787
OK,57,35,686,57,2014-08-02T10:05:00,1,20873597,192787
OK,57,35,686,57,2014-08-02T10:10:00,0,20874046,192787
OK,57,35,686,57,2014-08-02T10:15:00,0,20874495,192787
OK,57,35,686,57,2014-08-02T10:20:00,0,20874944,192787
OK,57,35,686,57,2014-08-02T10:25:00,0,20875393,192787
OK,57,35,686,57,2014-08-02T10:30:00,0,20875842,192787
OK,57,35,686,57,2014-08-02T10:35:00,0,20876291,192787
OK,57,35,686,57,2014-08-02T10:40:00,0,20876740,192787
OK,57,35,686,57,2014-08-02T10:45:00,0,20877189,192787
OK,57,35,686,57,2014-08-02T10:50:00,2,20877638,192787
OK,57,35,686,57,2014-08-02T10:55:00,2,20878087,192787
OK,57,35,686,57,2014-08-02T11:00:00,2,20878536,192787
OK,69,29,686,69,2014-08-02T11:05:00,4,20878985,192787
OK,69,29,686,69,2014-08-02T11:10:00,2,20879434,192787
OK,69,29,686,69,2014-08-02T11:15:00,0,20879883,192787
OK,98,20,686,98,2014-08-02T11:20:00,2,20880332,192787
OK,119,17,686,119,2014-08-02T11:25:00,1,20880781,192787
OK,58,35,686,58,2014-08-02T11:30:00,1,20881230,192787
OK,58,35,686,58,2014-08-02T11:35:00,1,20881679,192787
OK,56,36,686,56,2014-08-02T11:40:00,1,20882128,192787
OK,56,36,686,56,2014-08-02T11:45:00,1,20882577,192787
OK,56,36,686,56,2014-08-02T11:50:00,3,20883026,192787
OK,56,36,686,56,2014-08-02T11:55:00,3,20883475,192787
OK,101,20,686,101,2014-08-02T12:00:00,1,20883924,192787
OK,101,20,686,101,2014-08-02T12:05:00,0,20884373,192787
OK,101,20,686,101,2014-08-02T12:10:00,0,20884822,192787
OK,45,45,686,45,2014-08-02T12:15:00,1,20885271,192787
OK,45,45,686,45,2014-08-02T12:20:00,1,20885720,192787
OK,42,48,686,42,2014-08-02T12:25:00,1,20886169,192787
OK,62,32,686,62,2014-08-02T12:30:00,2,20886618,192787
OK,83,24,686,83,2014-08-02T12:35:00,0,20887067,192787
OK,73,27,686,73,2014-08-02T12:40:00,3,20887516,192787
OK,76,26,686,76,2014-08-02T12:45:00,2,20887965,192787
OK,79,25,686,79,2014-08-02T12:50:00,0,20888414,192787
OK,87,23,686,87,2014-08-02T12:55:00,1,20888863,192787
OK,71,28,686,71,2014-08-02T13:00:00,2,20889312,192787
OK,56,36,686,56,2014-08-02T13:05:00,0,20889761,192787
OK,56,36,686,56,2014-08-02T13:10:00,0,20890210,192787
OK,55,37,686,55,2014-08-02T13:15:00,1,20890659,192787
OK,73,27,686,73,2014-08-02T13:20:00,2,20891108,192787
OK,92,22,686,92,2014-08-02T13:25:00,1,20891557,192787
OK,39,52,686,39,2014-08-02T13:30:00,2,20892006,192787
OK,42,48,686,42,2014-08-02T13:35:00,1,20892455,192787
OK,42,48,686,42,2014-08-02T13:40:00,0,20892904,192787
OK,42,48,686,42,2014-08-02T13:45:00,0,20893353,192787
OK,44,46,686,44,2014-08-02T13:50:00,2,20893802,192787
OK,40,50,686,40,2014-08-02T13:55:00,1,20894251,192787
OK,40,50,686,40,2014-08-02T14:00:00,0,20894700,192787
OK,40,50,686,40,2014-08-02T14:05:00,0,20895149,192787
OK,40,50,686,40,2014-08-02T14:10:00,0,20895598,192787
OK,38,53,686,38,2014-08-02T14:15:00,1,20896047,192787
OK,38,53,686,38,2014-08-02T14:20:00,1,20896496,192787
OK,44,46,686,44,2014-08-02T14:25:00,2,20896945,192787
OK,44,46,686,44,2014-08-02T14:30:00,3,20897394,192787
OK,53,38,686,53,2014-08-02T14:35:00,2,20897843,192787
OK,66,30,686,66,2014-08-02T14:40:00,1,20898292,192787
OK,66,30,686,66,2014-08-02T14:45:00,0,20898741,192787
OK,66,30,686,66,2014-08-02T14:50:00,0,20899190,192787
OK,66,30,686,66,2014-08-02T14:55:00,0,20899639,192787
OK,66,30,686,66,2014-08-02T15:00:00,0,20900088,192787
OK,66,30,686,66,2014-08-02T15:05:00,0,20900537,192787
OK,56,36,686,56,2014-08-02T15:10:00,1,20900986,192787
OK,52,39,686,52,2014-08-02T15:15:00,2,20901435,192787
OK,48,42,686,48,2014-08-02T15:20:00,1,20901884,192787
OK,55,37,686,55,2014-08-02T15:25:00,2,20902333,192787
OK,66,30,686,66,2014-08-02T15:30:00,2,20902782,192787
OK,54,37,686,54,2014-08-02T15:35:00,1,20903231,192787
OK,52,39,686,52,2014-08-02T15:40:00,1,20903680,192787
OK,45,45,686,45,2014-08-02T15:45:00,2,20904129,192787
OK,47,43,686,47,2014-08-02T15:50:00,2,20904578,192787
OK,56,36,686,56,2014-08-02T15:55:00,1,20905027,192787
OK,56,36,686,56,2014-08-02T16:00:00,0,20905476,192787
OK,60,33,686,60,2014-08-02T16:05:00,1,20905925,192787
OK,58,35,686,58,2014-08-02T16:10:00,2,20906374,192787
OK,56,36,686,56,2014-08-02T16:15:00,1,20906823,192787
OK,40,50,686,40,2014-08-02T16:20:00,1,20907272,192787
OK,56,36,686,56,2014-08-02T16:25:00,2,20907721,192787
OK,72,28,686,72,2014-08-02T16:30:00,1,20908170,192787
OK,72,28,686,72,2014-08-02T16:35:00,0,20908619,192787
OK,72,28,686,72,2014-08-02T16:40:00,0,20909068,192787
OK,72,28,686,72,2014-08-02T16:45:00,0,20909517,192787
OK,72,28,686,72,2014-08-02T16:50:00,0,20909966,192787
OK,72,28,686,72,2014-08-02T16:55:00,0,20910415,192787
OK,72,28,686,72,2014-08-02T17:00:00,0,20910864,192787
OK,72,28,686,72,2014-08-02T17:05:00,0,20911313,192787
OK,69,29,686,69,2014-08-02T17:10:00,2,20911762,192787
OK,81,25,686,81,2014-08-02T17:15:00,1,20912211,192787
OK,53,38,686,53,2014-08-02T17:20:00,1,20912660,192787
OK,67,30,686,67,2014-08-02T17:25:00,2,20913109,192787
OK,33,61,686,33,2014-08-02T17:30:00,1,20913558,192787
OK,33,61,686,33,2014-08-02T17:35:00,0,20914007,192787
OK,33,61,686,33,2014-08-02T17:40:00,0,20914456,192787
OK,33,61,686,33,2014-08-02T17:45:00,0,20914905,192787
OK,33,61,686,33,2014-08-02T17:50:00,0,20915354,192787
OK,33,61,686,33,2014-08-02T17:55:00,0,20915803,192787
OK,33,61,686,33,2014-08-02T18:00:00,0,20916252,192787
OK,33,61,686,33,2014-08-02T18:05:00,0,20916701,192787
OK,33,61,686,33,2014-08-02T18:10:00,0,20917150,192787
OK,33,61,686,33,2014-08-02T18:15:00,0,20917599,192787
OK,33,61,686,33,2014-08-02T18:20:00,0,20918048,192787
OK,39,52,686,39,2014-08-02T18:25:00,1,20918497,192787
OK,52,39,686,52,2014-08-02T18:30:00,2,20918946,192787
OK,60,33,686,60,2014-08-02T18:35:00,4,20919395,192787
OK,60,33,686,60,2014-08-02T18:40:00,3,20919844,192787
OK,60,33,686,60,2014-08-02T18:45:00,1,20920293,192787
OK,60,33,686,60,2014-08-02T18:50:00,0,20920742,192787
OK,60,33,686,60,2014-08-02T18:55:00,0,20921191,192787
OK,41,49,686,41,2014-08-02T19:00:00,1,20921640,192787
OK,41,49,686,41,2014-08-02T19:05:00,0,20922089,192787
OK,41,49,686,41,2014-08-02T19:10:00,0,20922538,192787
OK,47,43,686,47,2014-08-02T19:15:00,1,20922987,192787
OK,47,43,686,47,2014-08-02T19:20:00,0,20923436,192787
OK,47,43,686,47,2014-08-02T19:25:00,0,20923885,192787
OK,47,43,686,47,2014-08-02T19:30:00,0,20924334,192787
OK,47,43,686,47,2014-08-02T19:35:00,0,20924783,192787
OK,47,43,686,47,2014-08-02T19:40:00,0,20925232,192787
OK,96,21,686,96,2014-08-02T19:45:00,1,20925681,192787